Time,TemperatureF,DewpointF,PressureIn,WindDirection,WindDirectionDegrees,WindSpeedMPH,WindSpeedGustMPH,Humidity,HourlyPrecipIn,Conditions,Clouds,dailyrainin,SoftwareType,DateUTC
2013-11-27 00:01:00,33.1,31.1,29.63,SW,225,0.0,1.1,92,0.03,,,0.00,WUHU216HW,2013-11-27 05:01:00,
2013-11-27 00:06:00,33.3,31.4,29.63,West,270,0.0,1.3,93,0.03,,,0.00,WUHU216HW,2013-11-27 05:06:00,
2013-11-27 00:11:00,33.3,31.4,29.63,West,270,1.3,1.3,93,0.02,,,0.00,WUHU216HW,2013-11-27 05:11:00,
2013-11-27 00:16:00,33.5,31.3,29.62,West,270,0.4,1.6,92,0.02,,,0.00,WUHU216HW,2013-11-27 05:16:00,
2013-11-27 00:21:00,33.5,31.3,29.62,SW,225,0.7,1.6,92,0.01,,,0.00,WUHU216HW,2013-11-27 05:21:00,
2013-11-27 00:26:00,33.5,31.6,29.62,West,270,0.4,1.1,93,0.02,,,0.01,WUHU216HW,2013-11-27 05:26:00,
2013-11-27 00:31:00,33.5,31.3,29.61,West,270,1.1,1.6,92,0.02,,,0.01,WUHU216HW,2013-11-27 05:31:00,
2013-11-27 00:36:00,33.5,31.3,29.62,West,270,1.8,3.8,92,0.02,,,0.01,WUHU216HW,2013-11-27 05:36:00,
2013-11-27 00:41:00,33.5,31.6,29.62,WSW,248,3.4,4.0,93,0.02,,,0.01,WUHU216HW,2013-11-27 05:41:00,
2013-11-27 00:46:00,33.5,31.3,29.61,West,270,2.0,4.0,92,0.02,,,0.01,WUHU216HW,2013-11-27 05:46:00,
2013-11-27 00:51:00,33.5,31.6,29.61,West,270,1.8,3.4,93,0.02,,,0.01,WUHU216HW,2013-11-27 05:51:00,
2013-11-27 00:56:00,33.5,31.3,29.61,WNW,293,1.6,3.8,92,0.01,,,0.01,WUHU216HW,2013-11-27 05:56:00,
2013-11-27 01:01:00,33.5,31.3,29.61,WSW,248,0.4,3.8,92,0.01,,,0.01,WUHU216HW,2013-11-27 06:01:00,
2013-11-27 01:06:00,33.7,31.5,29.61,WSW,248,4.0,4.0,92,0.01,,,0.01,WUHU216HW,2013-11-27 06:06:00,
2013-11-27 01:11:00,33.7,31.5,29.61,WNW,293,2.5,4.0,92,0.01,,,0.01,WUHU216HW,2013-11-27 06:11:00,
2013-11-27 01:16:00,33.7,31.8,29.61,West,270,2.5,4.0,93,0.02,,,0.02,WUHU216HW,2013-11-27 06:16:00,
2013-11-27 01:21:00,33.7,31.8,29.61,West,270,0.9,4.5,93,0.02,,,0.03,WUHU216HW,2013-11-27 06:21:00,
2013-11-27 01:26:00,33.8,32.0,29.62,WNW,293,2.7,4.5,93,0.02,,,0.03,WUHU216HW,2013-11-27 06:26:00,
2013-11-27 01:31:00,33.8,32.0,29.61,NNW,338,0.0,2.7,93,0.02,,,0.03,WUHU216HW,2013-11-27 06:31:00,
2013-11-27 01:36:00,34.0,32.1,29.60,SSE,158,0.9,2.7,93,0.02,,,0.03,WUHU216HW,2013-11-27 06:36:00,
2013-11-27 01:41:00,34.0,32.1,29.61,SSW,203,0.9,2.5,93,0.02,,,0.03,WUHU216HW,2013-11-27 06:41:00,
2013-11-27 01:46:00,33.8,32.0,29.59,SSW,203,0.0,2.5,93,0.02,,,0.03,WUHU216HW,2013-11-27 06:46:00,
2013-11-27 01:51:00,33.8,32.0,29.57,North,0,0.4,1.1,93,0.02,,,0.03,WUHU216HW,2013-11-27 06:51:00,
2013-11-27 01:56:00,34.0,32.1,29.58,SW,225,0.0,1.1,93,0.02,,,0.03,WUHU216HW,2013-11-27 06:56:00,
2013-11-27 02:01:00,34.2,32.3,29.57,South,180,0.0,0.9,93,0.02,,,0.03,WUHU216HW,2013-11-27 07:01:00,
2013-11-27 02:06:00,34.2,32.3,29.57,WSW,248,1.6,1.8,93,0.02,,,0.03,WUHU216HW,2013-11-27 07:06:00,
2013-11-27 02:11:00,34.2,32.3,29.58,West,270,3.4,4.3,93,0.02,,,0.03,WUHU216HW,2013-11-27 07:11:00,
2013-11-27 02:16:00,34.2,32.3,29.58,West,270,1.8,4.3,93,0.00,,,0.03,WUHU216HW,2013-11-27 07:16:00,
2013-11-27 02:21:00,34.2,32.3,29.58,NW,315,0.7,3.4,93,0.00,,,0.03,WUHU216HW,2013-11-27 07:21:00,
2013-11-27 02:26:00,34.2,32.3,29.58,NW,315,2.5,2.7,93,0.00,,,0.03,WUHU216HW,2013-11-27 07:26:00,
2013-11-27 02:31:00,34.2,32.0,29.57,WSW,248,0.2,2.5,92,0.00,,,0.03,WUHU216HW,2013-11-27 07:31:00,
2013-11-27 02:36:00,34.2,32.0,29.57,WSW,248,1.1,1.8,92,0.00,,,0.03,WUHU216HW,2013-11-27 07:36:00,
2013-11-27 02:41:00,34.4,32.5,29.58,West,270,1.6,2.5,93,0.00,,,0.03,WUHU216HW,2013-11-27 07:41:00,
2013-11-27 02:46:00,34.4,32.5,29.58,West,270,1.1,2.7,93,0.00,,,0.03,WUHU216HW,2013-11-27 07:46:00,
2013-11-27 02:51:00,34.4,32.5,29.58,West,270,1.3,3.4,93,0.00,,,0.03,WUHU216HW,2013-11-27 07:51:00,
2013-11-27 02:56:00,34.6,32.7,29.58,West,270,2.2,3.4,93,0.00,,,0.03,WUHU216HW,2013-11-27 07:56:00,
2013-11-27 03:01:00,34.6,32.7,29.58,West,270,2.0,3.1,93,0.00,,,0.03,WUHU216HW,2013-11-27 08:01:00,
2013-11-27 03:06:00,34.7,32.9,29.58,West,270,0.4,3.1,93,0.00,,,0.03,WUHU216HW,2013-11-27 08:06:00,
2013-11-27 03:11:00,34.7,32.9,29.58,WSW,248,1.8,3.1,93,0.00,,,0.03,WUHU216HW,2013-11-27 08:11:00,
2013-11-27 03:16:00,34.7,32.9,29.58,SW,225,0.4,2.2,93,0.00,,,0.03,WUHU216HW,2013-11-27 08:16:00,
2013-11-27 03:21:00,34.9,33.0,29.57,West,270,0.7,1.6,93,0.00,,,0.03,WUHU216HW,2013-11-27 08:21:00,
2013-11-27 03:26:00,34.9,33.0,29.57,West,270,2.0,2.0,93,0.00,,,0.03,WUHU216HW,2013-11-27 08:26:00,
2013-11-27 03:31:00,34.9,33.0,29.57,WSW,248,0.2,2.0,93,0.00,,,0.03,WUHU216HW,2013-11-27 08:31:00,
2013-11-27 03:36:00,35.1,33.2,29.56,SE,135,0.7,1.8,93,0.01,,,0.04,WUHU216HW,2013-11-27 08:36:00,
2013-11-27 03:41:00,34.9,33.0,29.57,SE,135,0.7,1.3,93,0.01,,,0.04,WUHU216HW,2013-11-27 08:41:00,
2013-11-27 03:46:00,34.9,33.0,29.57,SSE,158,0.4,1.3,93,0.01,,,0.04,WUHU216HW,2013-11-27 08:46:00,
2013-11-27 03:51:00,34.9,33.0,29.56,SSE,158,0.0,0.9,93,0.01,,,0.04,WUHU216HW,2013-11-27 08:51:00,
2013-11-27 03:56:00,34.9,33.0,29.56,South,180,0.4,0.7,93,0.01,,,0.04,WUHU216HW,2013-11-27 08:56:00,
2013-11-27 04:01:00,34.9,33.0,29.57,SSW,203,0.4,1.1,93,0.01,,,0.04,WUHU216HW,2013-11-27 09:01:00,
2013-11-27 04:06:00,34.9,33.0,29.56,SSW,203,0.0,1.1,93,0.01,,,0.04,WUHU216HW,2013-11-27 09:06:00,
2013-11-27 04:11:00,34.9,32.8,29.57,SSW,203,0.0,0.7,92,0.01,,,0.04,WUHU216HW,2013-11-27 09:11:00,
2013-11-27 04:16:00,35.1,32.9,29.58,SSW,203,0.0,0.4,92,0.01,,,0.04,WUHU216HW,2013-11-27 09:16:00,
2013-11-27 04:21:00,35.1,33.2,29.58,WSW,248,1.3,2.5,93,0.01,,,0.04,WUHU216HW,2013-11-27 09:21:00,
2013-11-27 04:26:00,35.1,33.2,29.59,SSW,203,2.0,2.5,93,0.01,,,0.04,WUHU216HW,2013-11-27 09:26:00,
2013-11-27 04:31:00,35.3,33.4,29.60,SW,225,0.4,3.1,93,0.01,,,0.04,WUHU216HW,2013-11-27 09:31:00,
2013-11-27 04:36:00,35.3,33.4,29.59,WSW,248,1.1,3.1,93,0.01,,,0.05,WUHU216HW,2013-11-27 09:36:00,
2013-11-27 04:41:00,35.3,33.4,29.59,West,270,2.2,3.4,93,0.01,,,0.05,WUHU216HW,2013-11-27 09:41:00,
2013-11-27 04:46:00,35.5,33.6,29.58,WNW,293,0.9,3.4,93,0.01,,,0.05,WUHU216HW,2013-11-27 09:46:00,
2013-11-27 04:51:00,35.5,33.6,29.58,West,270,1.3,2.2,93,0.02,,,0.06,WUHU216HW,2013-11-27 09:51:00,
2013-11-27 04:56:00,35.5,33.6,29.57,NW,315,0.0,2.2,93,0.02,,,0.06,WUHU216HW,2013-11-27 09:56:00,
2013-11-27 05:01:00,35.5,33.3,29.56,West,270,0.2,1.3,92,0.02,,,0.06,WUHU216HW,2013-11-27 10:01:00,
2013-11-27 05:06:00,35.5,33.3,29.58,West,270,0.0,0.9,92,0.02,,,0.06,WUHU216HW,2013-11-27 10:06:00,
2013-11-27 05:11:00,35.5,33.3,29.58,NNE,23,0.4,0.9,92,0.03,,,0.07,WUHU216HW,2013-11-27 10:11:00,
2013-11-27 05:16:00,35.6,33.5,29.58,ENE,68,0.4,0.7,92,0.03,,,0.07,WUHU216HW,2013-11-27 10:16:00,
2013-11-27 05:21:00,35.6,33.5,29.58,ENE,68,0.0,0.7,92,0.03,,,0.07,WUHU216HW,2013-11-27 10:21:00,
2013-11-27 05:26:00,35.6,33.5,29.59,WSW,248,0.7,0.7,92,0.03,,,0.07,WUHU216HW,2013-11-27 10:26:00,
2013-11-27 05:31:00,35.6,33.5,29.59,WSW,248,0.4,0.9,92,0.03,,,0.07,WUHU216HW,2013-11-27 10:31:00,
2013-11-27 05:36:00,35.6,33.8,29.58,East,90,1.8,1.8,93,0.02,,,0.07,WUHU216HW,2013-11-27 10:36:00,
2013-11-27 05:41:00,35.6,33.8,29.60,WSW,248,0.2,2.2,93,0.02,,,0.07,WUHU216HW,2013-11-27 10:41:00,
2013-11-27 05:46:00,35.6,33.8,29.59,ESE,113,0.7,2.2,93,0.02,,,0.07,WUHU216HW,2013-11-27 10:46:00,
2013-11-27 05:51:00,35.6,33.5,29.58,NNE,23,0.0,2.5,92,0.01,,,0.07,WUHU216HW,2013-11-27 10:51:00,
2013-11-27 05:56:00,35.6,33.5,29.59,NNW,338,0.0,2.5,92,0.01,,,0.07,WUHU216HW,2013-11-27 10:56:00,
2013-11-27 06:01:00,35.8,33.7,29.59,NNE,23,0.0,1.1,92,0.01,,,0.07,WUHU216HW,2013-11-27 11:01:00,
2013-11-27 06:06:00,36.0,33.8,29.59,North,0,1.1,2.5,92,0.01,,,0.07,WUHU216HW,2013-11-27 11:06:00,
2013-11-27 06:11:00,36.4,34.2,29.58,West,270,0.9,2.5,92,0.00,,,0.07,WUHU216HW,2013-11-27 11:11:00,
2013-11-27 06:16:00,36.4,34.2,29.59,NW,315,3.1,5.1,92,0.00,,,0.07,WUHU216HW,2013-11-27 11:16:00,
2013-11-27 06:21:00,36.7,34.6,29.59,West,270,3.4,5.1,92,0.00,,,0.07,WUHU216HW,2013-11-27 11:21:00,
2013-11-27 06:26:00,37.1,34.7,29.59,NW,315,2.0,4.7,91,0.00,,,0.07,WUHU216HW,2013-11-27 11:26:00,
2013-11-27 06:31:00,37.1,34.4,29.60,ENE,68,2.5,4.7,90,0.00,,,0.07,WUHU216HW,2013-11-27 11:31:00,
2013-11-27 06:36:00,37.3,34.6,29.59,NNW,338,1.1,3.1,90,0.00,,,0.07,WUHU216HW,2013-11-27 11:36:00,
2013-11-27 06:41:00,37.3,34.3,29.60,WSW,248,2.0,3.1,89,0.00,,,0.07,WUHU216HW,2013-11-27 11:41:00,
2013-11-27 06:46:00,37.3,34.3,29.60,West,270,0.4,2.0,89,0.00,,,0.07,WUHU216HW,2013-11-27 11:46:00,
2013-11-27 06:51:00,37.3,34.3,29.61,West,270,1.6,2.0,89,0.00,,,0.07,WUHU216HW,2013-11-27 11:51:00,
2013-11-27 06:56:00,37.3,34.0,29.61,WSW,248,0.7,2.7,88,0.00,,,0.07,WUHU216HW,2013-11-27 11:56:00,
2013-11-27 07:01:00,37.1,33.5,29.62,NW,315,3.8,5.4,87,0.00,,,0.07,WUHU216HW,2013-11-27 12:01:00,
2013-11-27 07:06:00,37.3,33.7,29.63,West,270,1.6,5.4,87,0.00,,,0.07,WUHU216HW,2013-11-27 12:06:00,
2013-11-27 07:11:00,37.3,33.4,29.62,West,270,1.3,3.4,86,0.00,,,0.07,WUHU216HW,2013-11-27 12:11:00,
2013-11-27 07:16:00,37.3,33.7,29.63,SW,225,0.4,3.4,87,0.00,,,0.07,WUHU216HW,2013-11-27 12:16:00,
2013-11-27 07:21:00,37.1,33.2,29.62,NW,315,1.8,4.7,86,0.00,,,0.07,WUHU216HW,2013-11-27 12:21:00,
2013-11-27 07:26:00,37.1,32.9,29.62,West,270,1.8,4.7,85,0.00,,,0.07,WUHU216HW,2013-11-27 12:26:00,
2013-11-27 07:31:00,37.1,32.9,29.62,WNW,293,0.9,3.6,85,0.00,,,0.07,WUHU216HW,2013-11-27 12:31:00,
2013-11-27 07:36:00,37.1,32.9,29.63,West,270,0.9,9.2,85,0.00,,,0.07,WUHU216HW,2013-11-27 12:36:00,
2013-11-27 07:41:00,37.1,32.9,29.63,NW,315,1.1,9.2,85,0.00,,,0.07,WUHU216HW,2013-11-27 12:41:00,
2013-11-27 07:46:00,36.9,32.5,29.63,WNW,293,3.4,3.4,84,0.00,,,0.07,WUHU216HW,2013-11-27 12:46:00,
2013-11-27 07:51:00,36.9,32.5,29.63,West,270,3.1,4.5,84,0.00,,,0.07,WUHU216HW,2013-11-27 12:51:00,
2013-11-27 07:56:00,37.1,32.7,29.64,West,270,1.8,4.7,84,0.00,,,0.07,WUHU216HW,2013-11-27 12:56:00,
2013-11-27 08:01:00,37.1,32.4,29.64,WSW,248,1.8,6.5,83,0.00,,,0.07,WUHU216HW,2013-11-27 13:01:00,
2013-11-27 08:06:00,37.1,32.0,29.63,West,270,1.8,6.5,82,0.00,,,0.07,WUHU216HW,2013-11-27 13:06:00,
2013-11-27 08:11:00,37.1,32.0,29.63,WNW,293,3.8,6.0,82,0.00,,,0.07,WUHU216HW,2013-11-27 13:11:00,
2013-11-27 08:16:00,37.1,31.8,29.63,West,270,1.6,5.4,81,0.00,,,0.07,WUHU216HW,2013-11-27 13:16:00,
2013-11-27 08:21:00,37.1,32.0,29.64,NW,315,4.5,4.7,82,0.00,,,0.07,WUHU216HW,2013-11-27 13:21:00,
2013-11-27 08:26:00,37.1,31.8,29.65,WNW,293,1.8,4.9,81,0.00,,,0.07,WUHU216HW,2013-11-27 13:26:00,
2013-11-27 08:31:00,37.1,31.8,29.65,NNW,338,1.6,5.4,81,0.00,,,0.07,WUHU216HW,2013-11-27 13:31:00,
2013-11-27 08:36:00,37.1,31.8,29.65,West,270,2.7,5.4,81,0.00,,,0.07,WUHU216HW,2013-11-27 13:36:00,
2013-11-27 08:41:00,37.1,31.8,29.65,WSW,248,0.4,4.5,81,0.00,,,0.07,WUHU216HW,2013-11-27 13:41:00,
2013-11-27 08:46:00,37.1,31.8,29.66,NW,315,2.5,5.6,81,0.00,,,0.07,WUHU216HW,2013-11-27 13:46:00,
2013-11-27 08:51:00,37.3,31.7,29.65,West,270,1.6,7.4,80,0.00,,,0.07,WUHU216HW,2013-11-27 13:51:00,
2013-11-27 08:56:00,37.1,31.5,29.64,West,270,5.8,7.4,80,0.00,,,0.07,WUHU216HW,2013-11-27 13:56:00,
2013-11-27 09:02:00,37.1,31.1,29.66,West,270,2.2,7.6,79,0.00,,,0.07,WUHU216HW,2013-11-27 14:02:00,
2013-11-27 09:07:00,37.1,31.5,29.64,NE,45,2.5,8.9,80,0.00,,,0.07,WUHU216HW,2013-11-27 14:07:00,
2013-11-27 09:12:00,37.1,31.1,29.66,West,270,4.5,8.9,79,0.00,,,0.07,WUHU216HW,2013-11-27 14:12:00,
2013-11-27 09:17:00,37.1,31.5,29.65,NNW,338,3.8,7.4,80,0.00,,,0.07,WUHU216HW,2013-11-27 14:17:00,
2013-11-27 09:22:00,37.1,31.5,29.65,NE,45,4.9,7.4,80,0.00,,,0.07,WUHU216HW,2013-11-27 14:22:00,
2013-11-27 09:27:00,36.9,31.3,29.65,WNW,293,0.4,6.7,80,0.00,,,0.07,WUHU216HW,2013-11-27 14:27:00,
2013-11-27 09:32:00,36.7,31.4,29.65,NW,315,1.6,5.8,81,0.00,,,0.07,WUHU216HW,2013-11-27 14:32:00,
2013-11-27 09:37:00,36.7,31.4,29.65,NE,45,1.8,6.3,81,0.00,,,0.07,WUHU216HW,2013-11-27 14:37:00,
2013-11-27 09:42:00,36.7,31.7,29.65,WSW,248,1.6,6.7,82,0.00,,,0.07,WUHU216HW,2013-11-27 14:42:00,
2013-11-27 09:47:00,36.7,31.4,29.65,NW,315,1.6,6.7,81,0.00,,,0.07,WUHU216HW,2013-11-27 14:47:00,
2013-11-27 09:52:00,36.7,31.4,29.65,West,270,2.7,6.0,81,0.00,,,0.07,WUHU216HW,2013-11-27 14:52:00,
2013-11-27 09:57:00,36.9,31.9,29.65,West,270,2.2,4.7,82,0.00,,,0.07,WUHU216HW,2013-11-27 14:57:00,
2013-11-27 10:02:00,36.9,31.6,29.64,WNW,293,2.5,7.2,81,0.00,,,0.07,WUHU216HW,2013-11-27 15:02:00,
2013-11-27 10:07:00,37.1,31.8,29.63,WSW,248,1.1,7.2,81,0.00,,,0.07,WUHU216HW,2013-11-27 15:07:00,
2013-11-27 10:12:00,37.1,31.5,29.63,West,270,6.5,7.2,80,0.00,,,0.07,WUHU216HW,2013-11-27 15:12:00,
2013-11-27 10:17:00,37.1,31.5,29.63,East,90,4.0,8.5,80,0.00,,,0.07,WUHU216HW,2013-11-27 15:17:00,
2013-11-27 10:22:00,37.1,31.1,29.65,NNW,338,0.7,8.5,79,0.00,,,0.07,WUHU216HW,2013-11-27 15:22:00,
2013-11-27 10:27:00,37.3,31.7,29.64,West,270,3.4,6.9,80,0.00,,,0.07,WUHU216HW,2013-11-27 15:27:00,
2013-11-27 10:32:00,37.3,31.1,29.63,ENE,68,2.7,10.5,78,0.00,,,0.07,WUHU216HW,2013-11-27 15:32:00,
2013-11-27 10:37:00,37.3,31.3,29.62,West,270,4.0,10.5,79,0.00,,,0.07,WUHU216HW,2013-11-27 15:37:00,
2013-11-27 10:42:00,37.3,31.1,29.62,WSW,248,7.4,9.2,78,0.00,,,0.07,WUHU216HW,2013-11-27 15:42:00,
2013-11-27 10:47:00,37.3,31.1,29.61,WNW,293,3.4,9.2,78,0.00,,,0.07,WUHU216HW,2013-11-27 15:47:00,
2013-11-27 10:52:00,37.3,31.1,29.61,ENE,68,1.3,7.4,78,0.00,,,0.07,WUHU216HW,2013-11-27 15:52:00,
2013-11-27 10:57:00,37.3,31.1,29.61,NW,315,5.6,7.6,78,0.00,,,0.07,WUHU216HW,2013-11-27 15:57:00,
2013-11-27 11:02:00,37.3,30.7,29.61,NE,45,1.6,7.6,77,0.00,,,0.07,WUHU216HW,2013-11-27 16:02:00,
2013-11-27 11:07:00,37.4,30.9,29.61,West,270,3.4,8.5,77,0.00,,,0.07,WUHU216HW,2013-11-27 16:07:00,
2013-11-27 11:12:00,37.4,30.9,29.61,NNW,338,3.6,8.5,77,0.00,,,0.07,WUHU216HW,2013-11-27 16:12:00,
2013-11-27 11:17:00,37.4,30.9,29.63,North,0,3.1,7.8,77,0.00,,,0.07,WUHU216HW,2013-11-27 16:17:00,
2013-11-27 11:22:00,37.8,31.2,29.61,North,0,1.8,7.8,77,0.00,,,0.07,WUHU216HW,2013-11-27 16:22:00,
2013-11-27 11:27:00,37.8,31.2,29.59,WNW,293,3.4,4.7,77,0.00,,,0.07,WUHU216HW,2013-11-27 16:27:00,
2013-11-27 11:32:00,38.0,30.8,29.62,NW,315,4.7,7.2,75,0.00,,,0.07,WUHU216HW,2013-11-27 16:32:00,
2013-11-27 11:37:00,38.0,30.8,29.62,East,90,2.9,7.2,75,0.00,,,0.07,WUHU216HW,2013-11-27 16:37:00,
2013-11-27 11:42:00,38.2,30.6,29.59,WNW,293,4.7,7.4,74,0.00,,,0.07,WUHU216HW,2013-11-27 16:42:00,
2013-11-27 11:47:00,38.2,30.6,29.60,NW,315,3.6,7.4,74,0.00,,,0.07,WUHU216HW,2013-11-27 16:47:00,
2013-11-27 11:52:00,38.2,30.2,29.59,West,270,2.0,9.2,73,0.00,,,0.07,WUHU216HW,2013-11-27 16:52:00,
2013-11-27 11:57:00,38.2,30.2,29.61,West,270,1.1,9.2,73,0.00,,,0.07,WUHU216HW,2013-11-27 16:57:00,
2013-11-27 12:02:00,38.2,30.0,29.60,SW,225,6.5,9.2,72,0.00,,,0.07,WUHU216HW,2013-11-27 17:02:00,
2013-11-27 12:07:00,38.2,30.0,29.59,NNW,338,0.7,9.2,72,0.00,,,0.07,WUHU216HW,2013-11-27 17:07:00,
2013-11-27 12:12:00,38.2,30.0,29.62,West,270,1.6,8.5,72,0.00,,,0.07,WUHU216HW,2013-11-27 17:12:00,
2013-11-27 12:17:00,38.2,29.6,29.60,NNW,338,3.4,8.1,71,0.00,,,0.07,WUHU216HW,2013-11-27 17:17:00,
2013-11-27 12:22:00,38.0,29.8,29.60,SW,225,1.8,6.9,72,0.00,,,0.07,WUHU216HW,2013-11-27 17:22:00,
2013-11-27 12:27:00,38.0,29.4,29.61,West,270,6.3,11.0,71,0.00,,,0.07,WUHU216HW,2013-11-27 17:27:00,
2013-11-27 12:32:00,38.0,29.4,29.63,NW,315,3.8,11.0,71,0.00,,,0.07,WUHU216HW,2013-11-27 17:32:00,
2013-11-27 12:37:00,37.8,29.3,29.61,West,270,0.4,8.9,71,0.00,,,0.07,WUHU216HW,2013-11-27 17:37:00,
2013-11-27 12:42:00,37.8,29.6,29.61,West,270,1.6,6.9,72,0.00,,,0.07,WUHU216HW,2013-11-27 17:42:00,
2013-11-27 12:47:00,37.8,29.6,29.60,West,270,8.1,8.3,72,0.00,,,0.07,WUHU216HW,2013-11-27 17:47:00,
2013-11-27 12:52:00,37.8,29.3,29.62,West,270,10.5,10.5,71,0.00,,,0.07,WUHU216HW,2013-11-27 17:52:00,
2013-11-27 12:57:00,37.6,29.4,29.60,NNE,23,2.7,10.5,72,0.00,,,0.07,WUHU216HW,2013-11-27 17:57:00,
2013-11-27 13:02:00,37.8,29.6,29.59,West,270,4.7,8.1,72,0.00,,,0.07,WUHU216HW,2013-11-27 18:02:00,
2013-11-27 13:07:00,37.8,29.3,29.58,NNE,23,5.6,8.5,71,0.00,,,0.07,WUHU216HW,2013-11-27 18:07:00,
2013-11-27 13:12:00,37.8,29.6,29.60,NNW,338,6.0,8.5,72,0.00,,,0.07,WUHU216HW,2013-11-27 18:12:00,
2013-11-27 13:17:00,37.8,29.6,29.60,NW,315,1.6,7.6,72,0.00,,,0.07,WUHU216HW,2013-11-27 18:17:00,
2013-11-27 13:22:00,37.6,29.4,29.60,NNE,23,2.7,7.6,72,0.00,,,0.07,WUHU216HW,2013-11-27 18:22:00,
2013-11-27 13:27:00,37.6,29.4,29.60,East,90,4.3,8.9,72,0.00,,,0.07,WUHU216HW,2013-11-27 18:27:00,
2013-11-27 13:32:00,37.8,29.3,29.60,West,270,4.3,8.9,71,0.00,,,0.07,WUHU216HW,2013-11-27 18:32:00,
2013-11-27 13:37:00,37.6,29.1,29.60,West,270,3.4,6.7,71,0.00,,,0.07,WUHU216HW,2013-11-27 18:37:00,
2013-11-27 13:42:00,37.6,29.1,29.60,West,270,2.5,6.7,71,0.00,,,0.07,WUHU216HW,2013-11-27 18:42:00,
2013-11-27 13:47:00,37.6,29.4,29.61,WSW,248,4.5,7.6,72,0.00,,,0.07,WUHU216HW,2013-11-27 18:47:00,
2013-11-27 13:52:00,37.6,29.1,29.62,ESE,113,4.7,11.2,71,0.00,,,0.07,WUHU216HW,2013-11-27 18:52:00,
2013-11-27 13:56:00,37.4,29.3,29.63,West,270,11.0,11.2,72,0.00,,,0.07,WUHU216HW,2013-11-27 18:56:00,
2013-11-27 14:01:00,37.4,29.3,29.62,WSW,248,5.4,11.2,72,0.00,,,0.07,WUHU216HW,2013-11-27 19:01:00,
2013-11-27 14:06:00,37.3,29.4,29.63,SW,225,15.0,15.0,73,0.00,,,0.07,WUHU216HW,2013-11-27 19:06:00,
2013-11-27 14:11:00,37.1,29.5,29.63,North,0,5.6,15.0,74,0.00,,,0.07,WUHU216HW,2013-11-27 19:11:00,
2013-11-27 14:16:00,36.9,29.7,29.63,West,270,10.3,15.0,75,0.00,,,0.07,WUHU216HW,2013-11-27 19:16:00,
2013-11-27 14:21:00,36.7,29.5,29.64,SSW,203,4.3,15.7,75,0.00,,,0.07,WUHU216HW,2013-11-27 19:21:00,
2013-11-27 14:26:00,36.5,29.7,29.64,WSW,248,9.8,15.7,76,0.00,,,0.07,WUHU216HW,2013-11-27 19:26:00,
2013-11-27 14:31:00,36.4,29.5,29.64,WNW,293,4.7,9.8,76,0.00,,,0.07,WUHU216HW,2013-11-27 19:31:00,
2013-11-27 14:36:00,36.2,29.6,29.65,West,270,4.0,9.8,77,0.01,,,0.08,WUHU216HW,2013-11-27 19:36:00,
2013-11-27 14:41:00,36.2,30.0,29.65,West,270,2.9,7.8,78,0.01,,,0.08,WUHU216HW,2013-11-27 19:41:00,
2013-11-27 14:46:00,36.0,30.1,29.66,West,270,6.3,11.4,79,0.01,,,0.08,WUHU216HW,2013-11-27 19:46:00,
2013-11-27 14:51:00,35.6,30.1,29.66,East,90,4.7,14.3,80,0.01,,,0.08,WUHU216HW,2013-11-27 19:51:00,
2013-11-27 14:56:00,35.5,30.2,29.67,NE,45,3.8,14.3,81,0.01,,,0.08,WUHU216HW,2013-11-27 19:56:00,
2013-11-27 15:01:00,35.1,30.1,29.68,NW,315,1.1,11.4,82,0.01,,,0.08,WUHU216HW,2013-11-27 20:01:00,
2013-11-27 15:06:00,34.9,30.3,29.68,WNW,293,2.5,8.5,83,0.01,,,0.08,WUHU216HW,2013-11-27 20:06:00,
2013-11-27 15:11:00,34.9,30.5,29.68,West,270,3.4,8.5,84,0.01,,,0.08,WUHU216HW,2013-11-27 20:11:00,
2013-11-27 15:16:00,34.6,30.2,29.68,West,270,3.4,6.9,84,0.01,,,0.08,WUHU216HW,2013-11-27 20:16:00,
2013-11-27 15:21:00,34.4,30.0,29.69,West,270,2.7,6.9,84,0.01,,,0.08,WUHU216HW,2013-11-27 20:21:00,
2013-11-27 15:26:00,34.6,30.2,29.68,West,270,6.7,9.8,84,0.01,,,0.08,WUHU216HW,2013-11-27 20:26:00,
2013-11-27 15:31:00,34.9,29.3,29.68,WSW,248,8.5,9.8,80,0.01,,,0.08,WUHU216HW,2013-11-27 20:31:00,
2013-11-27 15:36:00,35.5,29.5,29.68,WNW,293,6.9,10.5,79,0.00,,,0.08,WUHU216HW,2013-11-27 20:36:00,
2013-11-27 15:41:00,35.6,28.8,29.69,West,270,5.4,10.5,76,0.00,,,0.08,WUHU216HW,2013-11-27 20:41:00,
2013-11-27 15:46:00,36.0,28.4,29.69,NNW,338,1.3,8.5,74,0.00,,,0.08,WUHU216HW,2013-11-27 20:46:00,
2013-11-27 15:51:00,36.2,28.4,29.70,NNW,338,4.9,9.2,73,0.00,,,0.08,WUHU216HW,2013-11-27 20:51:00,
2013-11-27 15:56:00,36.0,27.6,29.70,West,270,3.6,12.5,71,0.00,,,0.08,WUHU216HW,2013-11-27 20:56:00,
2013-11-27 16:01:00,36.2,27.7,29.70,West,270,5.4,12.5,71,0.00,,,0.08,WUHU216HW,2013-11-27 21:01:00,
2013-11-27 16:06:00,36.2,27.7,29.71,West,270,9.8,9.8,71,0.00,,,0.08,WUHU216HW,2013-11-27 21:06:00,
2013-11-27 16:11:00,36.2,27.7,29.71,West,270,6.3,9.8,71,0.00,,,0.08,WUHU216HW,2013-11-27 21:11:00,
2013-11-27 16:16:00,36.0,27.6,29.71,West,270,9.4,11.6,71,0.00,,,0.08,WUHU216HW,2013-11-27 21:16:00,
2013-11-27 16:21:00,35.8,27.4,29.71,NW,315,4.0,11.6,71,0.00,,,0.08,WUHU216HW,2013-11-27 21:21:00,
2013-11-27 16:26:00,35.8,27.4,29.72,NNW,338,4.3,11.0,71,0.00,,,0.08,WUHU216HW,2013-11-27 21:26:00,
2013-11-27 16:31:00,35.6,27.2,29.72,NE,45,1.3,8.5,71,0.00,,,0.08,WUHU216HW,2013-11-27 21:31:00,
2013-11-27 16:36:00,35.5,27.0,29.72,East,90,6.3,13.4,71,0.00,,,0.08,WUHU216HW,2013-11-27 21:36:00,
2013-11-27 16:41:00,35.5,27.0,29.72,NNE,23,7.4,13.4,71,0.00,,,0.08,WUHU216HW,2013-11-27 21:41:00,
2013-11-27 16:46:00,35.3,26.8,29.73,WNW,293,4.7,10.3,71,0.00,,,0.08,WUHU216HW,2013-11-27 21:46:00,
2013-11-27 16:51:00,35.3,27.1,29.73,West,270,3.1,10.3,72,0.00,,,0.08,WUHU216HW,2013-11-27 21:51:00,
2013-11-27 16:56:00,35.3,27.1,29.74,SW,225,6.9,10.5,72,0.00,,,0.08,WUHU216HW,2013-11-27 21:56:00,
2013-11-27 17:01:00,35.1,26.9,29.75,West,270,4.9,10.5,72,0.00,,,0.08,WUHU216HW,2013-11-27 22:01:00,
2013-11-27 17:06:00,34.9,26.7,29.75,West,270,5.4,8.5,72,0.00,,,0.08,WUHU216HW,2013-11-27 22:06:00,
2013-11-27 17:11:00,34.9,26.5,29.76,West,270,3.8,8.5,71,0.00,,,0.08,WUHU216HW,2013-11-27 22:11:00,
2013-11-27 17:16:00,34.7,25.9,29.76,WSW,248,5.4,10.5,70,0.00,,,0.08,WUHU216HW,2013-11-27 22:16:00,
2013-11-27 17:21:00,34.6,25.4,29.77,WNW,293,10.5,11.9,69,0.00,,,0.08,WUHU216HW,2013-11-27 22:21:00,
2013-11-27 17:26:00,34.6,25.4,29.77,West,270,10.7,13.2,69,0.00,,,0.08,WUHU216HW,2013-11-27 22:26:00,
2013-11-27 17:31:00,34.4,25.2,29.78,ENE,68,6.7,13.9,69,0.00,,,0.08,WUHU216HW,2013-11-27 22:31:00,
2013-11-27 17:36:00,34.2,24.3,29.78,NNW,338,4.7,14.5,67,0.00,,,0.08,WUHU216HW,2013-11-27 22:36:00,
2013-11-27 17:41:00,34.0,24.5,29.79,WNW,293,5.4,14.5,68,0.00,,,0.08,WUHU216HW,2013-11-27 22:41:00,
2013-11-27 17:46:00,33.8,23.9,29.79,WNW,293,8.3,14.3,67,0.00,,,0.08,WUHU216HW,2013-11-27 22:46:00,
2013-11-27 17:51:00,33.7,24.1,29.79,West,270,3.1,14.3,68,0.00,,,0.08,WUHU216HW,2013-11-27 22:51:00,
2013-11-27 17:56:00,33.5,23.9,29.79,SW,225,7.4,10.3,68,0.00,,,0.08,WUHU216HW,2013-11-27 22:56:00,
2013-11-27 18:01:00,33.5,23.9,29.80,North,0,2.5,10.3,68,0.00,,,0.08,WUHU216HW,2013-11-27 23:01:00,
2013-11-27 18:06:00,33.3,23.9,29.81,North,0,7.4,9.2,68,0.00,,,0.08,WUHU216HW,2013-11-27 23:06:00,
2013-11-27 18:11:00,33.1,23.3,29.81,NW,315,8.5,12.8,67,0.00,,,0.08,WUHU216HW,2013-11-27 23:11:00,
2013-11-27 18:16:00,32.8,23.0,29.81,North,0,2.9,14.3,67,0.00,,,0.08,WUHU216HW,2013-11-27 23:16:00,
2013-11-27 18:21:00,32.6,22.4,29.81,NE,45,4.0,14.3,66,0.00,,,0.08,WUHU216HW,2013-11-27 23:21:00,
2013-11-27 18:26:00,32.4,22.3,29.81,West,270,4.0,14.3,66,0.00,,,0.08,WUHU216HW,2013-11-27 23:26:00,
2013-11-27 18:31:00,32.4,22.3,29.82,NW,315,8.3,11.6,66,0.00,,,0.08,WUHU216HW,2013-11-27 23:31:00,
2013-11-27 18:36:00,32.0,22.3,29.82,NE,45,6.0,11.6,67,0.00,,,0.08,WUHU216HW,2013-11-27 23:36:00,
2013-11-27 18:41:00,32.0,22.0,29.83,West,270,2.5,16.1,66,0.00,,,0.08,WUHU216HW,2013-11-27 23:41:00,
2013-11-27 18:46:00,32.0,22.0,29.83,NW,315,2.5,16.1,66,0.00,,,0.08,WUHU216HW,2013-11-27 23:46:00,
2013-11-27 18:51:00,31.7,21.6,29.83,West,270,4.5,13.4,66,0.00,,,0.08,WUHU216HW,2013-11-27 23:51:00,
2013-11-27 18:56:00,31.7,21.2,29.84,NE,45,4.0,15.2,65,0.00,,,0.08,WUHU216HW,2013-11-27 23:56:00,
2013-11-27 19:01:00,31.5,20.7,29.84,West,270,5.6,15.2,64,0.00,,,0.08,WUHU216HW,2013-11-28 00:01:00,
2013-11-27 19:06:00,31.5,20.7,29.85,WSW,248,6.0,16.1,64,0.00,,,0.08,WUHU216HW,2013-11-28 00:06:00,
2013-11-27 19:11:00,31.3,20.5,29.86,North,0,8.9,16.1,64,0.00,,,0.08,WUHU216HW,2013-11-28 00:11:00,
2013-11-27 19:16:00,31.3,19.8,29.86,West,270,7.8,9.6,62,0.00,,,0.08,WUHU216HW,2013-11-28 00:16:00,
2013-11-27 19:21:00,31.3,19.8,29.87,NNW,338,2.5,10.5,62,0.00,,,0.08,WUHU216HW,2013-11-28 00:21:00,
2013-11-27 19:26:00,31.1,19.6,29.87,WNW,293,7.8,12.1,62,0.00,,,0.08,WUHU216HW,2013-11-28 00:26:00,
2013-11-27 19:31:00,31.0,19.4,29.87,West,270,11.6,12.1,62,0.00,,,0.08,WUHU216HW,2013-11-28 00:31:00,
2013-11-27 19:36:00,31.0,19.4,29.88,West,270,12.8,19.5,62,0.00,,,0.08,WUHU216HW,2013-11-28 00:36:00,
2013-11-27 19:41:00,30.8,19.3,29.88,NW,315,7.6,19.5,62,0.00,,,0.08,WUHU216HW,2013-11-28 00:41:00,
2013-11-27 19:46:00,30.6,19.1,29.88,North,0,6.3,17.9,62,0.00,,,0.08,WUHU216HW,2013-11-28 00:46:00,
2013-11-27 19:51:00,30.6,19.1,29.89,North,0,6.5,12.5,62,0.00,,,0.08,WUHU216HW,2013-11-28 00:51:00,
2013-11-27 19:56:00,30.4,18.5,29.89,WNW,293,11.0,17.9,61,0.00,,,0.08,WUHU216HW,2013-11-28 00:56:00,
2013-11-27 20:01:00,30.2,18.4,29.89,WNW,293,9.2,17.9,61,0.00,,,0.08,WUHU216HW,2013-11-28 01:01:00,
2013-11-27 20:06:00,30.2,17.6,29.89,West,270,13.4,19.7,59,0.00,,,0.08,WUHU216HW,2013-11-28 01:06:00,
2013-11-27 20:11:00,30.1,17.5,29.89,NW,315,7.2,19.7,59,0.00,,,0.08,WUHU216HW,2013-11-28 01:11:00,
2013-11-27 20:16:00,30.1,17.5,29.90,WNW,293,10.5,14.1,59,0.00,,,0.08,WUHU216HW,2013-11-28 01:16:00,
2013-11-27 20:21:00,29.9,17.3,29.90,West,270,11.4,14.3,59,0.00,,,0.08,WUHU216HW,2013-11-28 01:21:00,
2013-11-27 20:26:00,29.9,17.3,29.91,WSW,248,3.8,14.5,59,0.00,,,0.08,WUHU216HW,2013-11-28 01:26:00,
2013-11-27 20:31:00,29.7,17.1,29.91,West,270,8.5,14.5,59,0.00,,,0.08,WUHU216HW,2013-11-28 01:31:00,
2013-11-27 20:36:00,29.7,17.1,29.91,NW,315,5.6,15.2,59,0.00,,,0.08,WUHU216HW,2013-11-28 01:36:00,
2013-11-27 20:41:00,29.5,16.9,29.92,WSW,248,4.7,15.2,59,0.00,,,0.08,WUHU216HW,2013-11-28 01:41:00,
2013-11-27 20:46:00,29.3,17.2,29.92,WNW,293,9.8,12.3,60,0.00,,,0.08,WUHU216HW,2013-11-28 01:46:00,
2013-11-27 20:51:00,29.2,17.4,29.92,West,270,3.4,12.1,61,0.00,,,0.08,WUHU216HW,2013-11-28 01:51:00,
2013-11-27 20:56:00,29.2,17.7,29.93,West,270,1.3,12.1,62,0.00,,,0.08,WUHU216HW,2013-11-28 01:56:00,
2013-11-27 21:01:00,29.0,17.9,29.93,NNW,338,4.0,11.4,63,0.00,,,0.08,WUHU216HW,2013-11-28 02:01:00,
2013-11-27 21:06:00,28.6,18.7,29.94,West,270,9.8,11.4,66,0.00,,,0.08,WUHU216HW,2013-11-28 02:06:00,
2013-11-27 21:11:00,28.4,17.1,29.93,WNW,293,17.9,17.9,62,0.00,,,0.08,WUHU216HW,2013-11-28 02:11:00,
2013-11-27 21:16:00,28.3,15.8,29.94,West,270,18.8,18.8,59,0.00,,,0.08,WUHU216HW,2013-11-28 02:16:00,
2013-11-27 21:21:00,28.3,15.4,29.94,WNW,293,9.8,18.8,58,0.00,,,0.08,WUHU216HW,2013-11-28 02:21:00,
2013-11-27 21:26:00,28.1,14.8,29.95,West,270,4.5,18.8,57,0.00,,,0.08,WUHU216HW,2013-11-28 02:26:00,
2013-11-27 21:31:00,28.1,14.4,29.95,West,270,5.4,16.3,56,0.00,,,0.08,WUHU216HW,2013-11-28 02:31:00,
2013-11-27 21:36:00,27.9,14.6,29.96,WNW,293,4.3,16.3,57,0.00,,,0.08,WUHU216HW,2013-11-28 02:36:00,
2013-11-27 21:41:00,27.9,13.8,29.96,West,270,3.8,11.9,55,0.00,,,0.08,WUHU216HW,2013-11-28 02:41:00,
2013-11-27 21:46:00,27.9,15.0,29.97,WSW,248,6.3,11.9,58,0.00,,,0.08,WUHU216HW,2013-11-28 02:46:00,
2013-11-27 21:51:00,27.7,15.2,29.97,West,270,7.2,8.5,59,0.00,,,0.08,WUHU216HW,2013-11-28 02:51:00,
2013-11-27 21:56:00,27.7,14.9,29.97,WSW,248,5.6,8.5,58,0.00,,,0.08,WUHU216HW,2013-11-28 02:56:00,
2013-11-27 22:01:00,27.7,14.9,29.97,West,270,9.4,9.4,58,0.00,,,0.08,WUHU216HW,2013-11-28 03:01:00,
2013-11-27 22:06:00,27.7,14.4,29.97,NNW,338,7.6,11.4,57,0.00,,,0.08,WUHU216HW,2013-11-28 03:06:00,
2013-11-27 22:11:00,27.7,14.9,29.98,West,270,8.3,11.4,58,0.00,,,0.08,WUHU216HW,2013-11-28 03:11:00,
2013-11-27 22:16:00,27.7,14.1,29.98,West,270,6.7,12.3,56,0.00,,,0.08,WUHU216HW,2013-11-28 03:16:00,
2013-11-27 22:21:00,27.7,14.1,29.98,West,270,4.7,12.3,56,0.00,,,0.08,WUHU216HW,2013-11-28 03:21:00,
2013-11-27 22:26:00,27.7,14.1,29.99,WSW,248,7.2,11.2,56,0.00,,,0.08,WUHU216HW,2013-11-28 03:26:00,
2013-11-27 22:31:00,27.7,14.1,29.99,West,270,4.0,9.8,56,0.00,,,0.08,WUHU216HW,2013-11-28 03:31:00,
2013-11-27 22:36:00,27.5,13.4,29.99,West,270,5.4,10.3,55,0.00,,,0.08,WUHU216HW,2013-11-28 03:36:00,
2013-11-27 22:41:00,27.4,13.2,29.99,NW,315,5.4,10.5,55,0.00,,,0.08,WUHU216HW,2013-11-28 03:41:00,
2013-11-27 22:46:00,27.4,13.2,30.00,West,270,3.4,10.5,55,0.00,,,0.08,WUHU216HW,2013-11-28 03:46:00,
2013-11-27 22:51:00,27.4,12.8,30.00,West,270,4.7,10.5,54,0.00,,,0.08,WUHU216HW,2013-11-28 03:51:00,
2013-11-27 22:56:00,27.4,12.4,30.00,West,270,6.9,14.8,53,0.00,,,0.08,WUHU216HW,2013-11-28 03:56:00,
2013-11-27 23:01:00,27.4,12.4,30.00,West,270,12.8,14.8,53,0.00,,,0.08,WUHU216HW,2013-11-28 04:01:00,
2013-11-27 23:06:00,27.4,12.0,30.01,WSW,248,8.7,13.2,52,0.00,,,0.08,WUHU216HW,2013-11-28 04:06:00,
2013-11-27 23:11:00,27.5,12.6,30.01,West,270,4.9,14.3,53,0.00,,,0.08,WUHU216HW,2013-11-28 04:11:00,
2013-11-27 23:16:00,27.4,12.0,30.01,WNW,293,5.8,14.3,52,0.00,,,0.08,WUHU216HW,2013-11-28 04:16:00,
2013-11-27 23:21:00,27.4,12.0,30.01,West,270,8.7,11.4,52,0.00,,,0.08,WUHU216HW,2013-11-28 04:21:00,
2013-11-27 23:26:00,27.4,12.0,30.02,West,270,5.8,12.8,52,0.00,,,0.08,WUHU216HW,2013-11-28 04:26:00,
2013-11-27 23:31:00,27.4,11.6,30.02,West,270,5.1,12.8,51,0.00,,,0.08,WUHU216HW,2013-11-28 04:31:00,
2013-11-27 23:36:00,27.4,11.6,30.03,NNW,338,11.6,13.4,51,0.00,,,0.08,WUHU216HW,2013-11-28 04:36:00,
2013-11-27 23:41:00,27.5,11.8,30.03,NNE,23,4.0,13.4,51,0.00,,,0.08,WUHU216HW,2013-11-28 04:41:00,
2013-11-27 23:46:00,27.4,12.0,30.04,West,270,4.3,12.3,52,0.00,,,0.08,WUHU216HW,2013-11-28 04:46:00,
2013-11-27 23:51:00,27.4,11.6,30.04,West,270,6.9,12.1,51,0.00,,,0.08,WUHU216HW,2013-11-28 04:51:00,
2013-11-27 23:56:00,27.2,11.8,30.04,West,270,11.9,16.1,52,0.00,,,0.08,WUHU216HW,2013-11-28 04:56:00,